Nashville, TN

8:47 PM CST on November 20, 2019 (GMT -0600)
Nashville International

Weather History for KBNA - October, 2019

Change the Weather History Date:

Sunday, October 20, 2019

  Actual Average Record
Temperature  
Mean Temperature 69 °F 59 °F  
Max Temperature 78 °F 70 °F 87 °F (1953)
Min Temperature 60 °F 48 °F 30 °F (1917)
Degree Days  
Heating Degree Days 0    
Month to date heating degree days 68  
Since 1 July heating degree days 68  
Cooling Degree Days 4    
Month to date cooling degree days 105  
Year to date cooling degree days 2276  
Growing Degree Days 19 (Base 50)    
Moisture  
Dew Point 56 °F    
Average Humidity 77    
Maximum Humidity 90    
Minimum Humidity 37    
Precipitation  
Precipitation T in 0.09 in 0.77 in (1984)
Month to date precipitation 2.85 1.92  
Year to date precipitation 50.27 37.58  
Sea Level Pressure  
Sea Level Pressure 29.88 in    
Wind  
Wind Speed 1 mph ()    
Max Wind Speed 9 mph    
Max Gust Speed 14 mph    
Visibility 6.6 miles    
Events Rain    
T = Trace of Precipitation, MM = Missing Value Source: Averaged Metar Reports

Daily Weather History Graph

Daily Weather History Graph

Search for Another Location

Airport or City:

Astronomy

Oct. 20, 2019 Rise Set
Actual Time 6:57 AM CDT 6:04 PM CDT
Civil Twilight 6:31 AM CDT 6:30 PM CDT
Nautical Twilight 6:01 AM CDT 7:00 PM CDT
Astronomical Twilight 5:32 AM CDT 7:30 PM CDT
Moon 11:20 PM CDT (10/20) 1:18 PM CDT (10/20)
Length of Visible Light 11h 58m
Length of Day
11h 06m
Waning Gibbous, 59% of the Moon is Illuminated
Oct 20
Waning Gibbous
Oct 21
Last Quarter
Oct 27
New
Nov 4
First Quarter
Nov 12
Full

Hourly Weather History & Observations

Time (CDT) Temp. Dew Point Humidity Pressure Visibility Wind Dir Wind Speed Gust Speed Precip Events Conditions
12:25 AM 60.1 °F 55.0 °F 83% 29.83 in 10.0 mi Calm Calm - 0.00 in   Overcast
12:53 AM 60.1 °F 55.9 °F 86% 29.82 in 3.0 mi Calm Calm - 0.00 in Rain Light Rain
1:14 AM 60.1 °F 55.9 °F 86% 29.83 in 8.0 mi Calm Calm - 0.00 in   Overcast
1:53 AM 60.1 °F 55.9 °F 86% 29.82 in 10.0 mi Calm Calm - 0.00 in   Overcast
2:18 AM 60.1 °F 57.0 °F 90% 29.84 in 9.0 mi Calm Calm - N/A   Overcast
2:53 AM 60.1 °F 57.0 °F 90% 29.82 in 8.0 mi Calm Calm - N/A   Overcast
3:53 AM 60.1 °F 57.0 °F 90% 29.83 in 6.0 mi Calm Calm - N/A   Overcast
4:16 AM 60.1 °F 57.0 °F 90% 29.85 in 2.5 mi Calm Calm - N/A   Overcast
4:29 AM 60.1 °F 57.0 °F 90% 29.85 in 1.5 mi Calm Calm - N/A   Overcast
4:36 AM 60.1 °F 57.0 °F 90% 29.85 in 1.5 mi Calm Calm - N/A   Overcast
4:46 AM 60.1 °F 57.0 °F 90% 29.85 in 1.0 mi Calm Calm - N/A   Overcast
4:53 AM 60.1 °F 57.0 °F 90% 29.85 in 1.0 mi Calm Calm - N/A   Overcast
5:12 AM 60.1 °F 57.0 °F 90% 29.86 in 1.8 mi Calm Calm - N/A   Overcast
5:21 AM 60.1 °F 57.0 °F 90% 29.86 in 2.5 mi Calm Calm - N/A   Overcast
5:31 AM 60.1 °F 57.0 °F 90% 29.87 in 3.0 mi South 3.5 mph - N/A   Overcast
5:53 AM 60.1 °F 57.0 °F 90% 29.86 in 3.0 mi Calm Calm - N/A   Overcast
6:33 AM 60.1 °F 57.0 °F 90% 29.89 in 4.0 mi Calm Calm - N/A   Overcast
6:38 AM 60.1 °F 57.0 °F 90% 29.89 in 4.0 mi Calm Calm - N/A   Overcast
6:53 AM 60.1 °F 57.0 °F 90% 29.88 in 3.0 mi Calm Calm - N/A   Overcast
7:27 AM 60.1 °F 57.0 °F 90% 29.90 in 3.0 mi Calm Calm - N/A   Mostly Cloudy
7:53 AM 61.0 °F 57.9 °F 90% 29.91 in 3.0 mi Calm Calm - N/A   Overcast
8:13 AM 61.0 °F 57.9 °F 90% 29.92 in 5.0 mi Calm Calm - N/A   Overcast
8:53 AM 62.1 °F 57.9 °F 86% 29.93 in 7.0 mi Calm Calm - N/A   Mostly Cloudy
9:12 AM 64.0 °F 59.0 °F 84% 29.94 in 8.0 mi Calm Calm - N/A   Overcast
9:53 AM 66.0 °F 55.9 °F 70% 29.94 in 10.0 mi NE 3.5 mph - N/A   Mostly Cloudy
10:53 AM 66.9 °F 55.9 °F 68% 29.94 in 10.0 mi Calm Calm - N/A   Mostly Cloudy
11:53 AM 70.0 °F 55.0 °F 59% 29.91 in 10.0 mi SE 4.6 mph - N/A   Scattered Clouds
12:53 PM 72.0 °F 53.1 °F 51% 29.90 in 10.0 mi Calm Calm - N/A   Partly Cloudy
1:53 PM 73.9 °F 52.0 °F 46% 29.89 in 10.0 mi Variable 3.5 mph - N/A   Clear
2:53 PM 77.0 °F 51.1 °F 40% 29.89 in 10.0 mi Calm Calm - N/A   Clear
3:53 PM 77.0 °F 52.0 °F 42% 29.89 in 10.0 mi Calm Calm - N/A   Clear
4:53 PM 75.9 °F 48.0 °F 37% 29.89 in 10.0 mi South 4.6 mph - N/A   Clear
5:53 PM 73.0 °F 51.1 °F 46% 29.89 in 10.0 mi East 3.5 mph - N/A   Clear
6:53 PM 66.9 °F 52.0 °F 59% 29.90 in 10.0 mi East 4.6 mph - N/A   Clear
7:53 PM 64.9 °F 54.0 °F 68% 29.91 in 10.0 mi South 4.6 mph - N/A   Clear
8:53 PM 63.0 °F 53.1 °F 70% 29.91 in 10.0 mi South 4.6 mph - N/A   Clear
9:53 PM 62.1 °F 54.0 °F 75% 29.92 in 10.0 mi South 6.9 mph - N/A   Clear
10:53 PM 63.0 °F 55.0 °F 75% 29.93 in 10.0 mi SSE 3.5 mph - N/A   Clear
11:53 PM 60.1 °F 55.0 °F 83% 29.91 in 10.0 mi South 4.6 mph - N/A   Clear